Change the Weather History Date:

Saturday, February 22, 2014

  Actual Average Record
Temperature  
Mean Temperature 55 °F 53 °F  
Max Temperature 67 °F 61 °F 78 °F (1985)
Min Temperature 43 °F 45 °F 34 °F (1951)
Degree Days  
Heating Degree Days 10 12  
Month to date heating degree days 266 290  
Since 1 July heating degree days 1780 1949  
Cooling Degree Days 0 0  
Month to date cooling degree days 0 0  
Year to date cooling degree days 0 0  
Growing Degree Days 4 (Base 50)    
Moisture  
Dew Point 45 °F    
Average Humidity 69    
Maximum Humidity 93    
Minimum Humidity 44    
Precipitation  
Precipitation 0.00 in 0.16 in 1.11 in (2009)
Month to date precipitation 2.25 3.01  
Year to date precipitation 2.29 7.00  
Since 1 July precipitation 4.36  
Sea Level Pressure  
Sea Level Pressure 29.99 in    
Wind  
Wind Speed 7 mph (NNW)    
Max Wind Speed 10 mph    
Max Gust Speed 12 mph    
Visibility 10 miles    
Events      
T = Trace of Precipitation, MM = Missing Value Source: NWS Daily Summary

Daily Weather History Graph

Daily Weather History Graph

Search for Another Location

Airport or City:

Trip Planner

Search our weather history database for the weather conditions in past years. The results will help you decide how hot, cold, wet, or windy it might be!

Date:

Astronomy

Feb. 22, 2014 Rise Set
Actual Time 6:49 AM PST 5:55 PM PST
Civil Twilight 6:23 AM PST 6:22 PM PST
Nautical Twilight 5:52 AM PST 6:52 PM PST
Astronomical Twilight 5:22 AM PST 7:23 PM PST
Moon 12:48 AM PST (2/22) 11:13 AM PST (2/22)
Length of Visible Light 11h 58m
Length of Day
11h 05m
Waning Gibbous, 49% of the Moon is Illuminated
Feb 22
Waning Gibbous
Mar 1
New
Mar 8
First Quarter
Mar 16
Full
Mar 23
Last Quarter

Hourly Weather History & Observations

Time (PST) Temp. Windchill Dew Point Humidity Pressure Visibility Wind Dir Wind Speed Gust Speed Precip Events Conditions
12:53 AM 46.9 °F - 43.0 °F 86% 30.02 in 10.0 mi NNE 4.6 mph - N/A   Clear
1:53 AM 46.9 °F - 44.1 °F 90% 30.01 in 10.0 mi NE 3.5 mph - N/A   Clear
2:53 AM 46.0 °F 43.9 °F 43.0 °F 89% 30.00 in 10.0 mi NE 4.6 mph - N/A   Clear
3:53 AM 48.0 °F - 44.1 °F 86% 30.00 in 10.0 mi Calm Calm - N/A   Clear
4:53 AM 46.0 °F - 43.0 °F 89% 30.00 in 10.0 mi Calm Calm - N/A   Clear
5:53 AM 44.1 °F 42.5 °F 41.0 °F 89% 30.01 in 10.0 mi NE 3.5 mph - N/A   Clear
6:53 AM 45.0 °F 43.5 °F 42.1 °F 90% 30.01 in 10.0 mi ENE 3.5 mph - N/A   Scattered Clouds
7:53 AM 48.9 °F - 45.0 °F 86% 30.02 in 10.0 mi NE 4.6 mph - N/A   Scattered Clouds
8:53 AM 55.0 °F - 46.9 °F 74% 30.03 in 10.0 mi Calm Calm - N/A   Scattered Clouds
9:53 AM 55.9 °F - 48.0 °F 75% 30.03 in 10.0 mi WSW 3.5 mph - N/A   Scattered Clouds
12:53 PM 64.9 °F - 42.1 °F 43% 29.98 in 10.0 mi West 5.8 mph - N/A   Scattered Clouds
1:53 PM 64.9 °F - 48.0 °F 54% 29.96 in 10.0 mi WNW 8.1 mph - N/A   Mostly Cloudy
2:53 PM 63.0 °F - 48.9 °F 60% 29.95 in 10.0 mi WNW 11.5 mph - N/A   Scattered Clouds
3:53 PM 61.0 °F - 48.0 °F 62% 29.94 in 10.0 mi WNW 13.8 mph - N/A   Partly Cloudy
4:53 PM 59.0 °F - 48.0 °F 67% 29.94 in 10.0 mi WNW 13.8 mph - N/A   Partly Cloudy
5:53 PM 55.9 °F - 48.0 °F 75% 29.94 in 10.0 mi WNW 12.7 mph - N/A   Partly Cloudy
6:53 PM 53.1 °F - 46.9 °F 80% 29.94 in 10.0 mi WNW 13.8 mph - N/A   Clear
7:53 PM 53.1 °F - 46.9 °F 80% 29.96 in 10.0 mi WNW 13.8 mph - N/A   Clear
10:53 PM 52.0 °F - 46.9 °F 83% 29.99 in 10.0 mi West 8.1 mph - N/A   Partly Cloudy
11:53 PM 48.0 °F - 44.1 °F 86% 29.99 in 10.0 mi ENE 3.5 mph - N/A   Scattered Clouds